Wetbulb
61.03 60.99 61.31 61.25 61.51 62.16 62.81 63.09 63.50 63.16 62.12 62.74 61.42 60.88 60.67 60.15 59.49 54.92 49.94 55.44 58.73 64.15 60.85 55.74 56.61 55.81 53.41 48.98 47.38 45.38 39.38 37.48 39.66 38.36 40.09 43.97 42.45 43.53 45.50 47.35 48.08 51.26 54.68 57.32 60.89
60.97 60.75 60.99 61.18 61.44 62.11 62.41 62.89 62.98 62.68 62.33 62.53 61.11 61.11 59.98 59.46 53.64 50.69 57.78 59.34 61.55 64.39 55.31 53.75 53.74 52.80 49.14 47.50 46.48 41.58 38.47 41.31 44.15 41.67 42.42 43.84 43.00 44.39 46.12 47.58 49.62 51.73 55.14 59.52 61.51
60.09 59.91 60.36 60.86 61.20 61.29 61.97 62.49 62.44 62.29 62.17 62.20 61.34 60.85 59.20 57.12 52.42 51.80 62.09 60.81 60.90 61.24 59.10 58.11 55.50 53.04 48.44 48.85 45.36 41.45 39.30 42.89 44.86 43.40 44.69 44.07 42.27 42.84 44.72 42.04 49.92 51.28 55.75 57.84 60.25
59.67 59.50 59.82 60.14 60.70 61.25 61.64 62.23 61.63 62.02 62.07 61.66 61.38 60.16 58.41 53.06 39.53 56.15 62.16 64.08 63.11 59.35 59.15 56.94 54.39 49.69 47.69 45.44 47.35 39.45 43.87 42.91 45.30 44.54 44.16 42.95 43.59 42.77 43.73 44.45 50.26 55.36 58.48 57.66 59.71
59.37 58.99 59.19 59.69 60.06 60.74 61.14 61.57 61.72 61.70 61.44 61.57 61.16 59.47 53.35 49.37 51.30 54.55 62.32 62.55 58.69 56.56 55.84 55.35 52.23 50.11 46.89 46.85 47.43 41.92 43.35 43.23 44.04 43.80 43.56 44.00 41.04 42.26 42.59 42.29 54.34 56.56 58.31 57.07 58.76
58.24 58.65 58.41 58.94 59.56 60.34 60.80 61.06 61.69 61.60 61.41 61.28 60.31 58.71 49.88 46.10 55.21 55.70 57.98 57.46 55.88 52.52 54.09 56.11 53.99 53.15 49.08 47.70 46.34 45.87 45.55 42.95 43.41 42.19 41.74 42.66 39.99 41.50 42.69 46.54 54.36 56.02 56.21 57.22 56.89
57.31 58.20 57.93 58.68 59.08 59.75 60.14 60.52 61.13 60.86 61.06 61.07 59.77 53.77 48.04 50.75 51.01 55.62 57.77 56.94 55.70 52.43 53.62 55.93 55.31 53.47 49.99 46.66 50.00 47.44 43.31 43.56 41.18 41.16 40.33 41.98 38.19 39.81 40.71 50.27 53.39 54.59 55.50 55.97 56.80
54.53 57.80 57.53 58.37 58.57 59.15 59.67 60.35 60.38 60.53 60.55 60.80 59.06 50.77 46.25 51.03 51.71 55.84 55.95 53.80 55.12 52.93 52.50 55.14 57.09 53.30 49.10 48.94 44.65 42.45 39.76 33.77 40.24 40.69 39.43 39.88 36.42 41.26 41.27 50.50 51.76 52.36 52.30 54.02 55.33
55.12 57.24 57.42 57.77 58.01 58.52 59.38 59.77 59.90 60.44 60.71 59.88 52.15 46.65 41.13 52.86 48.47 51.17 53.15 53.15 52.37 51.50 50.79 51.55 54.45 47.66 47.52 40.13 38.43 38.37 34.09 31.88 36.52 39.72 38.17 37.86 36.09 39.88 40.04 46.86 50.21 50.10 51.20 52.84 54.57
55.36 55.71 57.26 57.33 57.58 58.03 58.71 59.18 59.30 59.21 56.68 53.81 51.77 40.10 43.57 42.46 46.88 49.63 47.77 53.68 50.66 48.78 47.10 45.10 45.93 42.47 42.20 38.17 31.50 33.98 32.58 33.57 34.03 37.34 35.90 35.42 37.10 37.24 38.76 41.65 45.80 46.43 47.11 49.26 52.58
55.46 54.70 57.11 57.10 57.38 58.37 57.62 54.80 49.73 48.59 48.91 42.15 43.00 41.15 42.02 45.26 48.11 46.24 47.42 47.30 49.29 47.60 39.52 41.71 37.62 35.68 40.30 42.69 38.92 37.37 36.18 34.96 36.07 38.10 36.26 35.82 36.62 38.90 37.68 35.15 37.68 39.14 39.86 42.07 47.69
54.98 54.59 57.35 57.10 57.56 57.80 54.88 48.69 46.34 47.68 42.06 45.56 45.46 43.59 44.91 45.69 41.37 43.59 47.41 42.12 41.99 39.18 41.12 38.27 34.50 40.05 41.87 40.00 39.17 36.19 35.72 34.25 35.47 37.37 35.54 33.47 35.84 35.40 36.87 37.32 38.44 39.21 38.46 38.85 40.15
52.55 54.72 56.83 56.87 57.33 55.31 51.07 46.04 50.68 49.65 38.44 40.76 44.28 42.89 43.33 44.44 39.91 41.25 44.30 40.87 39.36 36.90 37.90 34.80 37.16 41.26 40.31 38.03 36.80 35.50 35.49 33.60 34.21 35.52 34.40 31.86 33.33 33.86 37.72 36.65 37.54 39.02 38.70 38.49 40.98
51.36 53.85 56.14 56.68 53.41 52.87 48.54 50.14 51.73 46.48 31.50 34.62 39.27 42.05 44.08 43.63 38.13 44.62 44.39 41.85 37.68 36.65 37.28 37.22 40.95 39.33 37.93 37.42 38.66 33.90 36.74 36.55 34.50 32.55 28.58 32.68 25.38 30.47 34.87 37.05 36.93 38.38 38.08 39.33 39.45
50.94 52.58 54.53 56.49 52.41 49.42 50.02 50.44 49.10 45.07 19.33 35.83 37.50 46.00 44.23 39.60 40.11 40.58 43.53 39.75 35.14 35.71 35.56 33.88 36.88 37.44 36.49 37.87 39.44 36.37 37.71 36.62 35.15 31.55 28.75 27.66 26.02 29.16 30.34 33.89 36.34 37.42 39.23 39.34 39.28
50.40 51.87 52.60 54.81 53.39 52.84 52.60 51.18 46.94 31.75 19.67 32.05 37.82 37.45 37.59 38.46 38.09 39.69 40.37 40.19 39.66 35.84 35.83 36.25 38.34 40.55 39.82 39.76 40.12 38.73 36.13 34.48 32.34 30.57 25.16 29.23 28.41 27.66 29.63 33.58 36.70 40.68 39.04 38.97 39.25
49.68 50.75 52.28 55.10 49.92 53.11 52.11 46.40 30.59 21.43 33.29 29.78 32.58 36.92 35.71 33.20 34.78 36.30 36.33 33.42 31.23 28.16 30.74 31.47 33.35 35.07 38.24 36.34 36.98 37.18 33.66 26.15 24.78 23.62 24.30 24.06 24.68 34.01 31.75 34.15 35.82 36.77 38.96 38.96 38.32
49.74 50.26 53.19 54.13 54.55 51.92 49.53 37.53 16.75 29.85 29.93 33.87 34.89 35.47 32.31 34.43 32.96 33.99 34.26 32.20 33.27 31.72 29.33 29.13 27.71 33.47 36.96 36.35 34.38 32.84 34.62 25.36 18.02 18.28 22.25 25.30 23.76 29.82 34.88 33.90 36.03 36.59 36.42 37.08 38.50
49.31 49.83 51.85 52.92 53.63 51.49 42.63 29.71 27.56 30.32 33.47 32.65 34.00 30.94 28.51 33.31 32.91 31.29 32.77 34.02 34.71 32.44 28.66 28.82 29.15 34.04 35.12 36.16 38.52 32.37 29.83 34.67 25.95 16.96 21.23 24.27 27.31 32.97 33.44 34.64 35.79 36.81 35.91 37.16 38.49
43.47 45.21 46.74 52.83 52.83 48.49 38.18 32.15 30.78 36.31 35.75 36.19 28.68 32.15 27.74 31.42 29.62 29.87 30.69 36.45 35.84 35.04 33.88 31.95 27.72 32.59 33.80 35.69 35.86 35.57 37.07 29.98 27.29 17.25 15.86 22.83 23.48 27.22 30.12 35.60 36.27 35.83 36.59 37.29 38.37
40.14 39.95 43.65 46.07 51.57 43.29 33.18 32.82 33.65 37.86 38.75 33.73 30.40 29.94 30.22 30.57 31.79 31.06 30.80 32.79 38.43 34.88 35.02 32.97 31.34 28.91 33.46 31.92 31.67 31.28 30.88 30.80 32.49 27.34 21.16 17.31 24.63 31.32 34.80 37.29 37.26 37.07 36.42 37.64 38.38
36.45 31.82 43.18 43.16 38.99 38.56 34.43 34.46 38.96 36.58 37.92 36.27 34.93 32.53 31.90 32.58 28.87 31.05 29.12 34.03 38.81 36.41 32.49 34.12 31.19 25.65 28.39 32.02 33.17 33.05 33.18 34.80 29.99 25.31 23.32 24.34 25.33 33.25 34.21 35.11 36.10 37.08 38.16 37.96 38.55
32.73 32.19 41.53 41.35 32.07 33.42 37.57 36.45 37.68 37.28 37.05 34.98 33.92 34.98 34.14 33.39 30.14 31.88 31.92 36.55 38.83 38.28 34.96 35.69 29.62 22.26 27.06 30.65 31.62 30.72 31.72 33.24 31.92 29.32 25.49 21.69 28.88 33.20 34.12 35.56 36.13 36.77 38.01 39.05 38.66
35.04 30.63 33.06 35.58 34.65 36.36 34.95 34.88 34.04 38.61 38.01 38.03 35.27 35.43 34.34 33.13 34.61 31.65 32.34 35.75 37.69 39.36 41.16 39.66 32.04 29.39 26.47 28.37 31.59 28.96 31.10 31.82 32.55 27.24 26.91 26.35 30.89 33.52 34.04 35.38 35.77 37.14 38.39 38.98 38.96
35.50 30.34 31.08 29.37 31.22 36.74 37.37 35.72 32.07 33.75 38.28 38.41 33.95 34.17 34.00 29.48 31.15 30.78 33.54 34.53 36.34 39.26 38.40 37.39 28.73 29.22 28.86 31.52 33.00 32.15 32.47 32.55 31.40 34.03 29.99 33.74 30.53 34.95 36.15 35.76 36.21 37.92 38.01 38.61 38.67
30.67 32.05 33.24 31.75 33.09 35.14 36.05 34.09 33.79 33.08 35.26 34.15 32.74 33.82 34.91 31.53 33.04 29.74 33.86 33.30 33.29 34.31 36.83 35.04 25.73 29.68 27.05 30.74 31.22 30.22 32.69 33.68 33.69 34.38 33.90 33.81 32.27 35.96 35.43 36.30 36.59 37.72 38.36 38.92 39.51
35.40 38.21 33.73 31.96 31.58 33.51 33.50 34.26 34.77 34.64 35.92 36.24 36.05 34.99 34.00 36.37 37.73 37.85 38.92 37.63 36.84 34.78 34.49 33.53 27.46 23.37 21.42 28.30 29.04 25.84 29.97 31.72 33.26 35.73 35.70 30.68 36.22 34.65 34.09 35.56 37.18 37.50 38.93 39.86 40.66
MSLP
1006.15 1006.75 1007.43 1008.12 1008.79 1009.46 1009.98 1010.58 1011.12 1011.81 1012.46 1013.15 1013.71 1014.25 1014.69 1014.81 1014.96 1015.26 1015.31 1015.33 1015.22 1014.71 1014.94 1015.25 1015.78 1016.55 1016.72 1016.34 1016.39 1016.45 1017.05 1017.13 1016.64 1016.57 1015.97 1015.80 1015.97 1016.16 1016.58 1017.05 1017.71 1017.95 1018.25 1018.18 1019.35
1005.50 1006.26 1007.04 1007.68 1008.25 1009.04 1009.65 1010.14 1010.80 1011.69 1012.43 1013.05 1013.69 1014.22 1014.50 1014.67 1014.77 1014.81 1014.66 1014.88 1014.74 1014.68 1014.81 1015.43 1016.21 1016.82 1017.63 1017.07 1016.69 1016.83 1017.18 1016.35 1015.62 1015.59 1015.46 1015.56 1015.81 1016.22 1016.74 1017.28 1017.90 1018.21 1018.31 1018.59 1019.56
1005.01 1005.86 1006.72 1007.27 1007.84 1008.71 1009.30 1009.87 1010.54 1011.25 1012.03 1012.80 1013.48 1013.96 1014.28 1014.66 1014.63 1014.04 1014.06 1014.45 1015.06 1015.19 1015.18 1015.61 1016.42 1016.98 1017.84 1017.68 1017.51 1017.22 1016.97 1016.04 1015.24 1015.06 1015.20 1015.37 1015.93 1016.03 1016.54 1017.40 1017.54 1017.85 1018.58 1018.99 1019.72
1004.82 1005.52 1006.31 1007.01 1007.45 1008.44 1009.11 1009.86 1010.38 1011.14 1011.97 1012.58 1013.28 1013.90 1014.22 1014.53 1014.28 1013.15 1013.73 1014.47 1015.11 1015.58 1015.61 1016.35 1016.67 1017.46 1017.98 1018.65 1018.40 1018.00 1016.88 1016.30 1015.44 1015.06 1015.26 1015.56 1015.69 1016.13 1016.38 1016.34 1016.32 1017.16 1017.50 1018.78 1019.37
1004.54 1005.20 1005.95 1006.72 1007.27 1008.06 1008.85 1009.51 1010.13 1010.96 1011.77 1012.43 1013.24 1013.87 1014.35 1014.55 1013.63 1012.89 1013.51 1014.06 1014.63 1015.48 1016.07 1016.62 1016.67 1017.54 1017.79 1018.77 1018.73 1018.04 1017.27 1016.41 1015.78 1015.53 1015.23 1015.44 1015.77 1015.99 1016.39 1016.43 1016.72 1017.51 1018.11 1018.71 1019.24
1004.11 1004.94 1005.61 1006.44 1007.06 1007.71 1008.64 1009.23 1009.92 1010.84 1011.61 1012.40 1013.24 1013.97 1014.34 1013.75 1012.72 1013.01 1013.51 1014.41 1014.88 1015.20 1016.03 1016.56 1016.81 1017.19 1017.53 1018.48 1018.65 1018.17 1017.95 1016.85 1016.16 1015.88 1015.54 1015.57 1016.05 1016.39 1016.66 1016.92 1017.47 1017.87 1018.29 1018.55 1018.90
1004.43 1004.76 1005.36 1006.07 1006.67 1007.45 1008.27 1008.74 1009.90 1010.89 1011.56 1012.42 1013.22 1014.13 1014.10 1013.41 1013.08 1013.43 1013.33 1014.18 1015.08 1015.27 1016.11 1016.78 1017.26 1017.09 1017.62 1018.62 1018.84 1019.16 1019.36 1017.63 1016.79 1016.20 1016.05 1015.80 1016.54 1016.72 1016.75 1017.40 1017.94 1018.40 1018.53 1018.73 1018.93
1004.38 1004.60 1005.26 1005.86 1006.40 1007.10 1008.09 1008.75 1009.95 1010.89 1011.67 1012.48 1013.49 1014.27 1013.79 1012.92 1013.34 1013.43 1013.35 1014.50 1015.31 1015.51 1015.70 1016.92 1017.50 1018.03 1018.00 1018.48 1019.15 1019.95 1019.94 1019.08 1017.14 1016.53 1016.43 1016.32 1016.65 1016.55 1017.11 1017.76 1018.45 1018.84 1019.05 1019.03 1019.04
1004.47 1004.12 1005.04 1005.65 1006.23 1007.04 1008.01 1009.11 1010.19 1011.09 1011.79 1012.68 1013.93 1014.33 1013.58 1013.12 1013.50 1013.44 1012.95 1013.92 1014.93 1015.64 1015.86 1016.58 1017.37 1017.78 1018.05 1018.92 1019.83 1020.20 1019.50 1018.91 1017.76 1016.83 1016.64 1016.81 1016.89 1016.62 1017.21 1017.98 1018.68 1018.96 1019.19 1019.08 1019.06
1004.08 1004.07 1004.72 1005.54 1006.11 1006.90 1007.88 1009.28 1010.23 1011.27 1011.97 1012.90 1013.87 1014.49 1013.65 1012.74 1013.18 1013.29 1013.75 1013.76 1015.02 1016.07 1016.63 1017.07 1017.57 1017.96 1018.03 1017.94 1018.31 1018.67 1019.05 1018.12 1017.46 1017.06 1017.10 1017.13 1016.93 1017.00 1017.40 1017.99 1018.44 1018.92 1019.04 1019.17 1018.87
1003.88 1004.50 1004.69 1005.36 1005.98 1006.48 1007.98 1009.09 1010.59 1012.21 1012.28 1011.80 1012.44 1012.93 1012.25 1012.49 1012.95 1013.49 1013.78 1014.39 1015.50 1016.79 1017.00 1017.04 1017.37 1016.54 1017.26 1016.79 1018.11 1018.15 1018.16 1017.75 1017.27 1016.86 1017.09 1017.21 1017.15 1017.09 1017.43 1018.16 1018.66 1018.94 1018.97 1018.93 1018.55
1003.84 1004.38 1004.33 1004.94 1005.57 1006.28 1007.25 1007.63 1008.49 1008.32 1011.41 1012.08 1012.22 1012.56 1011.94 1011.86 1013.11 1013.67 1013.83 1014.68 1015.66 1016.23 1017.07 1017.11 1015.62 1016.86 1017.31 1017.32 1018.05 1018.04 1017.67 1017.60 1017.35 1017.26 1017.42 1017.47 1017.38 1017.19 1017.52 1017.61 1017.78 1018.02 1018.44 1018.41 1018.41
1004.03 1003.95 1004.03 1004.55 1005.47 1006.63 1007.03 1007.77 1008.13 1008.34 1010.89 1012.35 1012.41 1012.47 1011.73 1011.94 1012.68 1013.49 1014.19 1014.54 1015.58 1016.58 1016.33 1016.31 1016.14 1016.77 1016.87 1017.59 1017.92 1017.92 1017.08 1017.45 1017.34 1017.65 1018.14 1017.94 1017.92 1017.25 1017.07 1017.26 1017.69 1017.71 1017.79 1018.14 1018.06
1003.95 1003.59 1003.55 1004.43 1006.06 1006.24 1007.01 1007.56 1007.96 1008.25 1010.33 1011.91 1012.16 1011.45 1011.53 1011.76 1012.96 1013.03 1013.61 1014.15 1015.52 1016.03 1016.88 1017.18 1016.57 1016.78 1017.07 1017.21 1017.43 1017.47 1017.14 1017.62 1017.81 1018.23 1018.49 1018.27 1018.03 1017.38 1016.87 1016.94 1017.29 1017.32 1017.54 1017.50 1017.54
1003.28 1003.73 1003.13 1003.87 1003.83 1005.42 1006.47 1007.49 1008.29 1008.70 1010.40 1011.36 1011.66 1010.64 1011.06 1011.69 1012.28 1013.37 1013.30 1013.84 1014.91 1015.36 1016.13 1015.80 1016.11 1016.65 1016.76 1016.13 1017.14 1017.54 1017.26 1017.86 1018.46 1018.71 1018.83 1019.19 1019.21 1017.19 1017.04 1016.89 1016.88 1016.79 1016.85 1016.78 1017.06
1003.88 1003.42 1003.66 1004.10 1004.33 1005.17 1006.57 1007.38 1008.79 1010.03 1009.92 1010.22 1009.95 1010.45 1011.12 1011.67 1012.32 1013.16 1013.39 1013.92 1014.58 1015.34 1015.84 1015.69 1015.60 1015.86 1015.61 1016.28 1017.26 1017.47 1017.95 1018.56 1019.31 1019.71 1019.80 1018.79 1018.91 1017.24 1016.67 1016.21 1015.95 1015.60 1016.00 1016.27 1016.72
1003.76 1003.53 1003.33 1002.86 1003.04 1004.78 1006.15 1007.50 1009.66 1009.35 1008.96 1010.12 1009.79 1009.68 1010.36 1011.97 1012.91 1012.89 1013.37 1014.05 1014.10 1014.99 1015.44 1015.57 1015.43 1015.34 1015.35 1016.25 1016.88 1016.98 1017.76 1019.24 1020.14 1020.68 1019.40 1019.20 1019.01 1016.63 1015.51 1015.27 1015.32 1015.13 1015.34 1015.83 1016.42
1002.91 1002.98 1002.28 1002.21 1002.94 1004.44 1005.65 1007.95 1008.27 1006.88 1007.89 1008.31 1008.84 1010.22 1010.79 1011.76 1013.16 1013.51 1013.84 1014.21 1013.98 1014.04 1015.27 1015.08 1015.65 1015.06 1014.64 1014.81 1015.30 1015.82 1016.73 1018.02 1018.88 1020.56 1020.31 1019.91 1018.10 1015.53 1014.48 1014.46 1014.98 1014.86 1015.10 1015.65 1016.40
1002.05 1002.11 1002.05 1001.73 1002.20 1003.83 1005.28 1006.84 1004.62 1005.08 1006.31 1007.07 1008.96 1010.41 1011.17 1011.43 1012.09 1013.27 1013.05 1012.60 1013.11 1013.41 1013.78 1013.99 1014.49 1014.35 1014.66 1014.41 1014.56 1015.79 1016.23 1016.79 1018.61 1020.80 1020.48 1019.01 1017.39 1015.53 1014.46 1014.56 1014.50 1014.88 1015.45 1015.37 1015.95
1003.06 1002.46 1002.17 1001.69 1002.18 1003.74 1004.64 1004.03 1004.43 1003.86 1004.59 1005.87 1007.59 1009.01 1009.47 1010.31 1011.03 1011.69 1012.30 1011.54 1012.17 1012.15 1012.18 1012.83 1014.43 1014.59 1014.76 1014.51 1014.53 1014.21 1015.18 1016.61 1017.91 1019.61 1019.95 1018.76 1017.53 1015.41 1014.52 1014.31 1014.05 1014.48 1014.70 1015.17 1016.00
1003.42 1002.78 1002.40 1002.12 1001.99 1003.34 1002.63 1003.15 1003.52 1003.21 1003.55 1004.95 1006.36 1008.12 1008.44 1009.29 1009.68 1009.95 1010.53 1010.62 1011.08 1011.43 1012.10 1012.48 1012.89 1015.14 1015.04 1014.52 1014.25 1014.73 1014.73 1015.62 1016.51 1017.94 1018.30 1018.18 1016.25 1014.12 1013.38 1012.94 1012.99 1013.10 1014.36 1015.51 1016.07
1004.28 1004.00 1002.70 1002.56 1001.95 1002.61 1002.77 1002.63 1002.74 1003.31 1003.79 1004.51 1005.45 1006.77 1007.62 1008.74 1009.32 1009.73 1009.81 1009.38 1010.11 1010.31 1012.10 1012.15 1012.89 1014.54 1014.61 1014.44 1014.41 1014.16 1013.88 1014.48 1015.72 1016.88 1017.51 1017.22 1014.69 1012.92 1012.71 1012.92 1012.91 1013.57 1014.41 1015.37 1016.30
1003.99 1003.60 1002.90 1002.82 1001.48 1002.36 1003.09 1003.18 1002.92 1003.38 1003.87 1004.33 1005.12 1005.83 1006.51 1007.61 1008.89 1009.05 1009.29 1009.68 1009.78 1009.35 1010.60 1011.21 1012.40 1014.19 1014.94 1015.01 1014.69 1014.13 1013.91 1013.67 1014.51 1015.62 1016.23 1016.58 1013.21 1012.60 1012.66 1012.74 1012.63 1013.39 1014.37 1015.15 1016.21
1004.44 1003.88 1003.58 1002.87 1002.15 1001.86 1002.21 1002.75 1003.24 1003.34 1003.73 1003.96 1004.67 1005.25 1006.23 1007.06 1007.34 1008.58 1009.41 1009.69 1009.64 1009.58 1010.16 1010.48 1011.80 1012.40 1012.93 1012.50 1013.28 1014.23 1013.90 1013.92 1014.28 1015.23 1014.92 1013.78 1012.85 1012.71 1012.51 1012.57 1012.81 1013.62 1014.45 1015.41 1016.21
1004.18 1004.39 1004.11 1003.06 1002.71 1002.41 1002.57 1002.53 1003.38 1003.58 1003.53 1004.10 1004.80 1004.88 1005.44 1006.69 1007.53 1008.20 1008.81 1009.70 1010.05 1009.98 1010.41 1010.84 1011.88 1012.58 1012.64 1012.43 1012.46 1012.63 1012.86 1013.17 1013.62 1013.14 1013.54 1010.51 1012.11 1011.88 1011.80 1011.90 1012.57 1013.47 1014.31 1015.05 1015.74
1004.53 1004.56 1004.20 1003.73 1003.17 1003.08 1002.90 1002.77 1002.77 1003.86 1004.11 1004.78 1004.90 1005.35 1005.21 1005.44 1005.75 1007.16 1007.63 1008.47 1009.12 1010.57 1010.80 1011.36 1012.12 1012.68 1013.28 1013.14 1012.90 1012.70 1012.50 1012.75 1012.44 1012.24 1011.17 1011.46 1010.37 1010.95 1011.32 1012.03 1012.68 1013.05 1013.90 1014.56 1014.93
1004.35 1004.45 1005.00 1005.05 1004.13 1003.39 1002.70 1002.63 1002.63 1003.86 1005.32 1005.25 1005.23 1005.47 1005.78 1005.87 1005.66 1005.79 1006.43 1007.48 1008.23 1009.39 1010.62 1011.49 1012.43 1013.48 1014.26 1014.02 1013.78 1013.49 1011.50 1011.83 1011.75 1011.17 1010.12 1010.54 1009.43 1010.80 1011.26 1011.43 1011.54 1012.32 1012.99 1013.13 1013.20
Wind_Speed
27 25 26 24 22 22 21 20 23 22 21 18 16 12 9 8 6 4 7 4 7 10 7 6 6 4 7 5 4 3 4 3 6 7 4 5 4 3 1 7 1 2 6 6 15
27 25 25 24 22 21 21 22 23 22 21 20 16 13 10 9 3 3 5 2 9 7 7 6 6 5 3 3 5 5 2 9 6 6 6 7 6 9 5 4 1 2 3 14 15
25 24 24 23 23 23 21 20 20 23 21 19 16 12 11 6 4 5 12 11 4 6 4 4 7 4 3 6 5 2 4 3 3 4 6 8 7 4 8 3 7 9 15 16 16
21 25 24 23 23 23 22 22 20 22 21 20 17 13 10 1 9 6 20 15 18 6 4 4 4 4 5 2 3 4 2 4 5 1 7 8 8 5 5 6 8 13 24 17 18
19 22 23 22 24 23 23 23 22 20 22 20 16 12 6 3 4 2 18 16 12 9 11 6 9 6 6 5 2 4 5 5 6 4 6 7 2 6 5 2 8 10 17 17 16
12 16 22 21 22 25 24 22 19 21 22 21 18 13 4 11 2 6 8 9 12 7 5 6 6 3 8 5 5 5 11 9 5 4 1 6 1 2 4 5 8 13 15 16 17
11 13 21 20 21 22 24 22 21 21 21 22 20 3 3 14 4 8 15 7 6 7 10 2 4 2 7 5 1 6 10 14 6 2 2 5 1 6 3 8 12 12 13 11 11
9 16 20 20 21 22 22 23 23 20 21 21 17 1 7 3 3 7 8 7 8 4 11 9 7 2 4 1 6 4 5 4 5 4 2 4 10 6 6 11 11 9 8 8 9
10 15 21 21 20 25 26 24 24 20 21 20 7 2 4 4 5 4 6 12 9 6 4 5 5 4 4 6 4 6 10 7 7 6 3 4 7 6 7 9 10 9 9 9 8
8 8 20 22 21 26 27 25 23 20 14 9 4 3 3 6 4 7 1 13 8 7 6 5 5 4 4 8 10 9 8 5 7 5 2 4 7 2 6 9 13 10 8 8 9
8 13 22 24 25 29 28 17 12 6 10 6 9 3 6 4 5 3 6 8 8 8 13 7 10 19 17 12 5 5 7 5 4 3 5 8 8 9 5 3 7 9 8 10 13
9 17 22 26 27 31 18 10 10 9 9 2 13 2 4 7 6 4 10 9 11 16 15 5 22 12 8 8 9 8 8 6 1 1 3 3 11 4 6 8 9 12 11 11 6
12 17 22 24 29 19 14 7 8 20 7 4 7 5 6 4 6 11 11 5 12 17 20 14 4 7 11 8 13 10 11 6 4 4 1 3 8 4 6 4 4 8 7 6 12
11 9 18 27 21 16 11 10 16 2 6 5 5 6 5 8 4 6 7 9 5 17 12 7 13 8 5 16 14 17 4 6 5 5 5 4 7 6 7 10 7 9 9 11 11
14 9 11 28 16 15 14 8 7 5 7 12 6 4 8 8 12 7 4 3 10 9 9 10 15 12 17 18 10 11 6 6 4 3 4 2 1 8 2 10 10 11 14 13 10
12 9 18 21 10 16 13 11 6 4 8 10 10 11 10 6 3 7 7 3 7 6 4 9 3 18 22 12 14 7 4 6 4 2 4 8 8 6 8 9 9 18 11 12 9
12 11 13 13 14 18 12 11 5 7 7 9 9 16 14 6 5 8 17 8 9 10 16 4 4 2 5 8 4 10 9 2 1 2 10 0 4 13 5 8 8 10 13 12 9
13 12 11 10 20 21 10 10 5 13 13 5 9 16 14 10 3 6 14 12 7 6 7 14 10 10 6 7 10 7 10 6 8 5 2 2 8 9 10 4 8 9 8 8 11
14 3 5 9 21 16 17 19 14 13 10 11 11 17 5 7 9 6 14 23 11 10 8 11 10 2 1 3 11 6 8 6 7 2 4 6 8 10 4 10 7 9 6 11 11
1 2 1 16 20 15 19 22 5 7 12 19 10 13 14 22 9 12 16 18 15 11 4 7 5 2 1 2 1 9 10 4 2 5 4 5 5 7 5 11 12 10 14 9 6
3 2 1 8 15 14 22 20 4 4 17 9 8 9 10 15 14 19 19 4 19 10 3 5 5 2 4 7 9 3 4 2 4 5 7 1 8 10 15 18 14 11 3 6 8
2 3 2 10 13 11 19 11 4 6 2 5 7 7 12 16 5 12 15 11 15 12 8 4 6 5 5 0 0 2 6 12 8 10 1 3 9 3 9 9 6 6 9 7 6
1 0 3 6 13 16 14 4 4 8 8 8 6 5 5 12 7 6 7 7 14 18 15 8 2 5 4 2 1 6 4 4 6 5 9 6 11 2 4 6 5 6 6 8 8
2 0 2 3 3 18 20 19 9 1 5 5 7 6 8 9 2 10 9 4 8 12 7 8 4 9 13 8 10 6 6 5 6 5 5 12 10 7 6 7 3 4 6 7 9
2 1 2 2 2 13 15 21 7 8 3 4 2 9 12 6 6 7 6 4 3 5 6 6 7 5 3 4 7 6 11 14 10 19 12 24 13 16 11 7 5 6 6 8 10
3 1 3 4 2 13 12 23 24 4 7 5 8 7 6 9 10 9 9 6 9 2 16 3 5 6 3 3 3 5 10 14 20 17 22 12 21 9 6 5 5 8 10 11 14
0 3 3 4 3 15 8 15 24 10 3 4 6 7 5 5 3 5 6 7 11 11 14 12 7 5 8 4 5 4 14 14 14 18 19 20 19 7 7 8 9 9 12 16 17
Wind_Direction
196 191 186 186 187 184 182 192 176 169 171 156 152 155 156 157 157 208 176 211 315 164 114 119 76 29 333 3 338 98 71 174 182 155 223 171 131 124 82 116 150 152 156 169 138
193 190 187 185 184 183 182 183 167 169 167 157 154 159 162 164 123 192 185 186 345 168 133 134 105 94 340 358 14 91 128 205 195 188 190 170 158 159 130 115 34 57 46 123 139
193 190 188 183 182 182 178 168 168 165 164 154 155 160 164 159 109 231 165 154 183 310 109 77 96 80 91 359 341 1 199 236 253 223 162 164 148 160 124 209 210 181 151 145 155
198 190 186 184 177 179 177 167 165 163 162 155 156 163 144 152 173 175 156 168 156 123 73 111 114 94 130 163 332 350 331 311 308 213 148 171 131 148 171 213 185 169 159 152 165
193 194 184 182 180 173 177 170 162 165 167 157 154 151 142 154 225 165 154 142 131 132 180 186 151 141 167 190 344 185 318 326 329 298 117 121 214 181 213 54 123 137 158 163 172
203 199 179 181 181 171 172 167 160 164 165 156 155 158 148 187 162 143 142 123 153 134 130 175 196 203 135 193 177 343 325 325 336 317 141 137 114 174 217 123 132 157 174 176 179
200 212 183 177 179 172 167 160 157 158 154 150 150 158 208 190 152 161 149 165 156 143 150 138 317 143 142 110 256 11 331 327 278 229 226 130 51 236 151 152 160 182 185 189 190
282 211 184 173 176 167 162 154 149 153 151 148 144 251 199 262 118 135 123 123 141 120 139 171 174 86 94 333 50 47 311 289 291 167 204 119 235 236 156 148 182 191 199 201 207
267 212 183 173 172 165 155 144 142 148 139 130 112 166 220 115 145 196 129 156 131 84 72 91 144 210 144 127 93 216 213 206 277 210 141 154 245 232 158 166 193 201 205 210 210
272 248 179 174 171 162 147 134 130 125 111 99 85 96 237 189 176 143 101 140 127 75 77 210 162 213 178 181 199 176 209 218 195 207 170 185 256 261 194 169 199 208 211 215 213
232 236 184 172 170 154 128 126 124 144 185 167 169 224 146 134 99 123 132 102 108 152 182 192 189 209 208 191 255 200 186 210 229 176 149 208 229 237 199 203 218 227 223 221 223
256 215 189 170 168 149 146 165 146 134 136 302 168 311 131 147 104 147 133 135 151 171 190 182 221 207 203 172 213 246 203 205 298 34 143 166 245 258 186 220 215 209 218 225 216
312 199 194 174 157 149 158 141 129 129 132 206 178 188 150 122 136 179 158 118 154 174 196 199 259 148 174 181 217 237 217 204 181 127 34 118 292 225 231 220 222 232 230 230 215
316 262 202 162 155 157 167 145 161 55 105 175 190 246 147 139 125 159 185 134 167 185 186 234 251 155 165 226 209 240 211 167 146 127 211 152 267 256 228 233 205 235 224 230 211
314 281 271 174 143 169 151 123 116 12 132 162 174 148 148 156 136 219 163 86 163 165 159 200 191 167 218 216 207 234 163 173 174 166 126 202 170 258 106 242 241 235 230 231 217
304 298 313 184 147 154 139 115 92 88 228 178 152 168 136 165 188 129 149 115 146 129 196 199 176 170 205 204 213 163 81 46 57 77 261 209 179 247 195 202 228 232 227 223 202
295 294 297 172 159 146 143 132 123 188 158 180 180 169 153 134 111 167 178 177 160 140 187 160 189 185 141 162 149 178 140 208 235 189 230 243 202 240 227 235 227 226 231 214 181
307 291 224 176 151 145 146 149 147 180 181 140 135 148 171 133 159 176 157 197 248 163 142 167 208 167 171 204 186 170 185 170 182 208 231 35 234 245 222 258 244 243 242 182 181
321 238 194 183 152 153 156 182 200 181 144 121 105 151 151 186 133 147 189 197 188 190 157 172 201 70 220 160 154 186 199 176 97 16 60 209 284 301 262 274 255 244 215 204 186
332 351 22 167 151 159 173 189 179 173 110 136 148 190 173 182 142 166 180 198 206 190 216 200 149 127 163 129 332 187 155 139 45 141 247 265 279 236 269 235 240 225 225 205 176
27 107 329 288 148 177 187 187 133 169 130 134 146 169 185 179 187 182 185 252 192 172 194 153 115 147 127 210 171 157 170 105 114 154 189 238 260 211 212 218 228 231 195 177 174
115 165 290 306 168 185 190 159 128 137 162 136 117 130 174 168 130 186 191 203 178 142 175 217 117 142 182 224 31 327 184 191 195 211 214 168 260 240 238 269 268 217 185 180 171
334 309 303 265 172 183 170 176 144 146 186 149 134 160 158 163 165 164 158 212 185 165 173 187 168 89 34 4 201 210 195 162 118 75 208 159 251 258 266 281 279 225 194 173 153
219 65 330 329 329 169 169 183 171 193 158 144 132 117 119 166 94 168 165 168 195 190 139 117 141 164 198 211 131 191 184 171 169 178 189 233 242 284 279 254 260 221 172 163 171
360 56 24 245 180 175 178 176 142 166 120 161 82 170 156 137 146 153 137 116 65 164 137 150 194 167 211 171 174 186 185 181 184 219 193 241 225 236 232 240 230 186 166 165 187
132 53 14 346 137 186 171 192 184 148 137 190 149 176 170 150 179 166 134 177 172 175 185 182 223 129 175 129 171 180 187 188 213 225 242 261 266 236 218 136 183 199 179 198 203
273 92 54 345 270 178 190 177 185 142 45 66 147 126 133 133 109 157 153 134 146 154 178 178 133 104 224 140 97 338 206 194 214 215 228 231 242 178 204 209 208 197 196 208 209